Find UniSat-3

NORAD ID: 28373 Int'l Des: 2004-025 Owner: ROGAU Country: I operational
LEOCIRCULARRETROGRADESSO

現在のビュー

3D地球を読み込み中...

UniSat-3について

説明を読み込み中...

次回通過

Passes for default location (London). Set your location on the main map for personalized predictions.

高度履歴

Loading altitude history...

軌道要素

1 28373U 04025H 26150.96188845 .00000677 00000-0 18635-3 0 9993
2 28373 98.6937 160.2957 0066077 45.1536 315.4998 14.49056471156559
Epoch: May 30, 2026 • Age: 14 hours

現在のステータス

高度 691.4 km
速度 7.54 km/s
衛星直下点 53.60°N, 71.1°E
打ち上げ日 Jun 29, 2004
運用期間 21.9 years
タイプ other

技術仕様

分類 Payload
質量 12.00 kg
乾燥質量 12.00 kg
総質量 12.00 kg
長さ 0.30 m
直径 0.20 m
スパン 0.30 m
形状 Oct Cyl
製造者 ROGAU/ROSAP
バスタイプ Unisat
フェーズステータス In Orbit
所有者/国 ROGAU/I

Most Searched